Date String (YYYY-MM-DD hh:mm:ss) UTC,Instrument flags,Ambient pressure (hPa),Sample flow (lpm),Bypass flow (lpm),Sample temperature (°C),Ambient temperature (°C),ASC tube jacket temperature (°C),LED temperature (°C),Box temperature (°C),Sample RH (%),Span deviation,Mass concentration (μg/m³),Mass concentration (μg/m³),Mass concentration (μg/m³)
DateTimeUTC,F1_M11,P_M11,Q1_M11,Q2_M11,T1_M11,T2_M11,T3_M11,T4_M11,T5_M11,U1_M11,ZSPAN_M11,X0_M11,X2_M11,X1_M11
2022-03-23 13:00:00,,0826.3,5.01,0.00,21.5,21.0,00.0,30.5,23.0,06.8,0000.0,0001.94,0000.87,0000.59
2022-03-23 13:01:00,,0826.3,5.00,0.00,21.4,20.7,00.0,30.5,22.8,06.7,0000.0,0002.15,0000.92,0000.58
2022-03-23 13:02:00,,0826.3,5.00,0.00,21.3,20.5,00.0,30.5,22.7,06.6,0000.0,0002.04,0000.88,0000.57
2022-03-23 13:03:00,,0826.3,5.00,0.00,21.3,20.4,00.0,30.4,22.7,06.7,0000.0,0002.09,0000.91,0000.58
2022-03-23 13:04:00,,0826.4,5.00,0.00,21.2,20.3,00.0,30.4,22.7,06.8,0000.0,0002.07,0000.91,0000.59
2022-03-23 13:05:00,,0826.4,5.00,0.00,21.2,20.3,00.0,30.4,22.7,06.7,0000.0,0002.10,0000.92,0000.59
2022-03-23 13:06:00,,0826.4,5.00,0.00,21.2,20.4,00.0,30.4,22.7,06.7,0000.0,0001.76,0000.92,0000.59
2022-03-23 13:07:00,,0826.4,4.99,0.00,21.3,21.3,00.0,30.4,23.0,06.6,0000.0,0001.76,0000.91,0000.59
2022-03-23 13:08:00,,0826.5,5.01,0.00,21.4,22.4,00.0,30.4,23.3,06.6,0000.0,0001.92,0000.96,0000.59
2022-03-23 13:09:00,,0826.5,4.99,0.00,21.6,22.9,00.0,30.5,23.6,06.5,0000.0,0001.94,0000.96,0000.60
2022-03-23 13:10:00,,0826.5,4.99,0.00,21.6,22.5,00.0,30.5,23.5,06.5,0000.0,0002.21,0001.02,0000.60
2022-03-23 13:11:00,,0826.5,5.00,0.00,21.6,22.1,00.0,30.5,23.3,06.5,0000.0,0002.65,0001.03,0000.59
2022-03-23 13:12:00,,0826.4,5.02,0.00,21.5,21.7,00.0,30.5,23.2,06.5,0000.0,0002.48,0001.00,0000.59
2022-03-23 13:13:00,,0826.3,4.99,0.00,21.5,21.4,00.0,30.5,23.1,06.6,0000.0,0002.38,0000.96,0000.59
2022-03-23 13:14:00,,0826.4,5.00,0.00,21.4,21.1,00.0,30.5,23.0,06.6,0000.0,0002.34,0000.96,0000.59
2022-03-23 13:15:00,,0826.4,5.00,0.00,21.4,20.9,00.0,30.5,23.0,06.5,0000.0,0002.34,0000.98,0000.59
2022-03-23 13:16:00,,0826.5,5.00,0.00,21.3,20.7,00.0,30.5,22.9,06.5,0000.0,0002.45,0001.01,0000.59
2022-03-23 13:17:00,,0826.5,5.00,0.00,21.3,20.5,00.0,30.4,22.8,06.5,0000.0,0002.44,0001.01,0000.58
2022-03-23 13:18:00,,0826.5,5.00,0.00,21.3,20.4,00.0,30.4,22.8,06.6,0000.0,0002.42,0001.01,0000.59
2022-03-23 13:19:00,,0826.5,5.00,0.00,21.2,20.4,00.0,30.4,22.8,06.6,0000.0,0002.30,0000.98,0000.58
2022-03-23 13:20:00,,0826.4,5.00,0.00,21.2,20.4,00.0,30.4,22.7,06.6,0000.0,0002.31,0000.99,0000.57
2022-03-23 13:21:00,,0826.5,5.00,0.00,21.2,20.5,00.0,30.4,22.7,06.6,0000.0,0002.14,0000.98,0000.57
2022-03-23 13:22:00,,0826.5,5.00,0.00,21.3,21.5,00.0,30.4,23.0,06.6,0000.0,0001.65,0000.95,0000.56
2022-03-23 13:23:00,,0826.5,5.01,0.00,21.5,22.6,00.0,30.4,23.4,06.5,0000.0,0001.59,0000.91,0000.56
2022-03-23 13:24:00,,0826.5,4.99,0.00,21.6,23.1,00.0,30.5,23.6,06.5,0000.0,0001.68,0000.94,0000.57
2022-03-23 13:25:00,,0826.5,4.99,0.00,21.7,22.7,00.0,30.5,23.5,06.5,0000.0,0001.67,0000.92,0000.56
2022-03-23 13:26:00,,0826.6,5.00,0.00,21.6,22.2,00.0,30.5,23.3,06.5,0000.0,0001.70,0000.91,0000.55
2022-03-23 13:27:00,,0826.5,5.01,0.00,21.6,21.8,00.0,30.5,23.2,06.4,0000.0,0001.74,0000.87,0000.54
2022-03-23 13:28:00,,0826.6,4.99,0.00,21.5,21.5,00.0,30.5,23.2,06.5,0000.0,0001.74,0000.89,0000.55
2022-03-23 13:29:00,,0826.6,5.01,0.00,21.5,21.3,00.0,30.5,23.1,06.6,0000.0,0001.69,0000.87,0000.56
2022-03-23 13:30:00,,0826.6,5.00,0.00,21.5,21.1,00.0,30.5,23.1,06.6,0000.0,0001.68,0000.87,0000.56
2022-03-23 13:31:00,,0826.6,5.00,0.00,21.4,20.9,00.0,30.5,23.0,06.6,0000.0,0001.70,0000.86,0000.56
2022-03-23 13:32:00,,0826.6,5.00,0.00,21.4,20.7,00.0,30.5,23.0,06.6,0000.0,0001.70,0000.86,0000.58
2022-03-23 13:33:00,,0826.6,5.00,0.00,21.4,20.6,00.0,30.5,22.9,06.6,0000.0,0001.70,0000.87,0000.59
2022-03-23 13:34:00,,0826.6,5.00,0.00,21.3,20.5,00.0,30.5,22.9,06.6,0000.0,0001.91,0000.89,0000.59
2022-03-23 13:35:00,,0826.6,5.01,0.00,21.3,20.4,00.0,30.4,22.8,06.7,0000.0,0001.82,0000.86,0000.58
2022-03-23 13:36:00,,0826.7,5.00,0.00,21.3,20.4,00.0,30.4,22.8,06.7,0000.0,0001.84,0000.87,0000.59
2022-03-23 13:37:00,,0826.6,5.00,0.00,21.2,20.4,00.0,30.4,22.8,06.7,0000.0,0001.89,0000.89,0000.59
2022-03-23 13:38:00,,0826.6,5.00,0.00,21.2,20.5,00.0,30.4,22.8,06.7,0000.0,0002.16,0000.93,0000.60
2022-03-23 13:39:00,,0826.7,5.00,0.00,21.3,21.5,00.0,30.4,23.1,06.7,0000.0,0002.27,0000.93,0000.61
2022-03-23 13:40:00,,0826.7,4.99,0.00,21.5,22.8,00.0,30.4,23.4,06.6,0000.0,0003.73,0000.96,0000.61
2022-03-23 13:41:00,,0826.7,5.01,0.00,21.7,22.9,00.0,30.5,23.6,06.6,0000.0,0003.85,0001.00,0000.61
2022-03-23 13:42:00,,0826.7,4.98,0.00,21.7,22.6,00.0,30.5,23.5,06.5,0000.0,0003.79,0001.00,0000.62
2022-03-23 13:43:00,,0826.7,5.00,0.00,21.7,22.2,00.0,30.5,23.4,06.4,0000.0,0003.78,0001.00,0000.61
2022-03-23 13:44:00,,0826.7,5.00,0.00,21.6,21.9,00.0,30.5,23.4,06.5,0000.0,0003.84,0001.02,0000.61
2022-03-23 13:45:00,,0826.7,5.02,0.00,21.6,21.6,00.0,30.5,23.3,06.5,0000.0,0003.98,0001.11,0000.63
2022-03-23 13:46:00,,0826.7,4.99,0.00,21.6,21.3,00.0,30.5,23.2,06.5,0000.0,0004.10,0001.18,0000.64
2022-03-23 13:47:00,,0826.7,5.00,0.00,21.6,21.2,00.0,30.5,23.2,06.6,0000.0,0004.23,0001.25,0000.65
2022-03-23 13:48:00,,0826.7,5.00,0.00,21.5,21.0,00.0,30.5,23.2,06.6,0000.0,0004.22,0001.26,0000.66
2022-03-23 13:49:00,,0826.8,5.01,0.00,21.5,20.9,00.0,30.5,23.1,06.6,0000.0,0005.47,0001.29,0000.67
2022-03-23 13:50:00,,0826.8,5.00,0.00,21.5,20.8,00.0,30.5,23.1,06.7,0000.0,0005.61,0001.31,0000.68
2022-03-23 13:51:00,,0826.8,5.00,0.00,21.5,20.7,00.0,30.5,23.1,06.7,0000.0,0004.95,0001.34,0000.68
2022-03-23 13:52:00,,0826.8,5.00,0.00,21.4,20.6,00.0,30.5,23.0,06.7,0000.0,0004.39,0001.32,0000.68
2022-03-23 13:53:00,,0826.8,4.99,0.00,21.4,20.5,00.0,30.5,23.0,06.6,0000.0,0004.47,0001.35,0000.69
2022-03-23 13:54:00,,0826.9,5.01,0.00,21.4,20.5,00.0,30.5,22.9,06.8,0000.0,0004.51,0001.37,0000.69
2022-03-23 13:55:00,,0826.8,5.00,0.00,21.3,20.5,00.0,30.5,22.9,06.8,0000.0,0004.38,0001.32,0000.69
2022-03-23 13:56:00,,0826.9,5.00,0.00,21.3,20.5,00.0,30.4,22.9,06.8,0000.0,0004.21,0001.27,0000.69
2022-03-23 13:57:00,,0826.8,5.00,0.00,21.3,20.5,00.0,30.4,22.9,06.8,0000.0,0004.10,0001.24,0000.69
2022-03-23 13:58:00,,0826.9,5.01,0.00,21.3,21.4,00.0,30.4,23.1,06.8,0000.0,0004.24,0001.20,0000.69
2022-03-23 13:59:00,,0826.9,4.99,0.00,21.6,22.7,00.0,30.5,23.5,06.8,0000.0,0004.42,0001.19,0000.69
